When you browse on this site, cookies collect data to enhance your experience and personalize the content and advertising you see.
Visit our Privacy Policy to learn more. By continuing to use the site, you agree to this use of cookies and data.
  • In Switzerland
  • List of Countries
  • For 7 days
  • Water Temperature
  • Weather Map
  • Weather Widgets
  • user-avatar
    Login

    Hourly Weather Reshety

    Today, 13 December, Friday

    Time Temperature Precipitation Wind Pressure Humidity
    00:00 0°C° 0 mm 5 mps 750 mmHg 83%
    01:00 0°C° 0 mm 5 mps 750 mmHg 83%
    02:00 0°C° 0 mm 4 mps 750 mmHg 84%
    03:00 0°C° 0 mm 4 mps 750 mmHg 85%
    04:00 0°C° 0 mm 5 mps 750 mmHg 85%
    05:00 0°C° 0 mm 5 mps 750 mmHg 86%
    06:00 0°C° 0 mm 4 mps 750 mmHg 87%
    07:00 0°C° 0 mm 4 mps 750 mmHg 87%
    08:00 0°C° 0 mm 4 mps 750 mmHg 87%
    09:00 -1°C° 0 mm 4 mps 750 mmHg 88%
    10:00 -1°C° 0 mm 4 mps 750 mmHg 89%
    11:00 -1°C° 0 mm 4 mps 749 mmHg 90%
    12:00 -1°C° 0 mm 4 mps 749 mmHg 90%
    13:00 -1°C° 0 mm 4 mps 749 mmHg 90%
    14:00 -1°C° 0 mm 4 mps 748 mmHg 90%
    15:00 -1°C° 0 mm 4 mps 748 mmHg 89%
    16:00 -1°C° 0 mm 4 mps 748 mmHg 89%
    17:00 -1°C° 0 mm 4 mps 748 mmHg 88%
    18:00 -1°C° 0 mm 4 mps 748 mmHg 89%
    19:00 -1°C° 0 mm 4 mps 748 mmHg 90%
    20:00 -1°C° 0 mm 4 mps 748 mmHg 91%
    21:00 -1°C° 0 mm 4 mps 748 mmHg 91%
    22:00 -1°C° 0 mm 4 mps 747 mmHg 92%
    23:00 -1°C° 0 mm 4 mps 747 mmHg 92%

    Tomorrow, 14 December, Saturday

    Time Temperature Precipitation Wind Pressure Humidity
    00:00 -1°C° 0 mm 5 mps 747 mmHg 91%
    01:00 0°C° 0 mm 5 mps 747 mmHg 90%
    02:00 0°C° 0 mm 5 mps 748 mmHg 89%
    03:00 0°C° 0 mm 5 mps 747 mmHg 88%
    04:00 -1°C° 0 mm 4 mps 747 mmHg 86%
    05:00 -1°C° 0 mm 4 mps 747 mmHg 85%
    06:00 -1°C° 0 mm 5 mps 747 mmHg 87%
    07:00 -1°C° 0 mm 5 mps 747 mmHg 89%
    08:00 -1°C° 0 mm 5 mps 747 mmHg 90%
    09:00 -1°C° 0 mm 5 mps 747 mmHg 89%
    10:00 -1°C° 0 mm 5 mps 747 mmHg 88%
    11:00 -1°C° 0 mm 5 mps 747 mmHg 87%
    12:00 0°C° 0 mm 5 mps 747 mmHg 86%
    13:00 0°C° 0 mm 5 mps 747 mmHg 85%
    14:00 0°C° 0 mm 5 mps 747 mmHg 83%
    15:00 0°C° 0 mm 5 mps 747 mmHg 83%
    16:00 0°C° 0 mm 5 mps 747 mmHg 83%
    17:00 -1°C° 0 mm 5 mps 747 mmHg 83%
    18:00 -1°C° 0 mm 5 mps 747 mmHg 87%
    19:00 -1°C° 0 mm 5 mps 747 mmHg 91%
    20:00 -1°C° 0 mm 5 mps 746 mmHg 95%
    21:00 0°C° 0 mm 5 mps 746 mmHg 94%
    22:00 0°C° 0 mm 5 mps 746 mmHg 92%
    23:00 +1°C° 0 mm 5 mps 745 mmHg 90%

    Day after tomorrow, 15 December, Sunday

    Time Temperature Precipitation Wind Pressure Humidity
    00:00 +1°C° 0.1 mm 5 mps 745 mmHg 91%
    01:00 +1°C° 0.1 mm 5 mps 745 mmHg 92%
    02:00 +1°C° 0.1 mm 5 mps 745 mmHg 92%
    03:00 +2°C° 0.2 mm 5 mps 744 mmHg 92%
    04:00 +2°C° 0.2 mm 5 mps 743 mmHg 92%
    05:00 +2°C° 0.2 mm 5 mps 743 mmHg 93%
    06:00 +2°C° 0.1 mm 5 mps 743 mmHg 92%
    07:00 +3°C° 0.1 mm 4 mps 742 mmHg 92%
    08:00 +3°C° 0.1 mm 4 mps 742 mmHg 92%
    09:00 +3°C° 0.7 mm 4 mps 742 mmHg 93%
    10:00 +2°C° 0.7 mm 5 mps 742 mmHg 95%
    11:00 +2°C° 0.7 mm 5 mps 742 mmHg 96%
    12:00 +2°C° 0.2 mm 5 mps 743 mmHg 93%
    13:00 +1°C° 0.2 mm 5 mps 743 mmHg 90%
    14:00 +1°C° 0.2 mm 5 mps 744 mmHg 88%
    15:00 +1°C° 0 mm 5 mps 744 mmHg 85%
    16:00 +1°C° 0 mm 5 mps 745 mmHg 83%
    17:00 +1°C° 0 mm 5 mps 745 mmHg 81%
    18:00 +1°C° 0 mm 5 mps 746 mmHg 81%
    19:00 0°C° 0 mm 5 mps 746 mmHg 81%
    20:00 0°C° 0 mm 4 mps 746 mmHg 81%
    21:00 0°C° 0 mm 5 mps 746 mmHg 81%
    22:00 0°C° 0 mm 5 mps 746 mmHg 82%
    23:00 0°C° 0 mm 5 mps 746 mmHg 82%

    16 December, Monday

    Time Temperature Precipitation Wind Pressure Humidity
    00:00 +1°C° 0.1 mm 5 mps 746 mmHg 83%
    01:00 +1°C° 0.1 mm 5 mps 746 mmHg 84%
    02:00 +2°C° 0.1 mm 5 mps 746 mmHg 85%
    03:00 +1°C° 0 mm 5 mps 746 mmHg 84%
    04:00 +1°C° 0 mm 5 mps 747 mmHg 84%
    05:00 +1°C° 0 mm 5 mps 747 mmHg 84%
    06:00 +1°C° 0 mm 5 mps 748 mmHg 84%
    07:00 +1°C° 0 mm 5 mps 748 mmHg 84%
    08:00 +1°C° 0 mm 5 mps 749 mmHg 84%
    09:00 +1°C° 0 mm 5 mps 749 mmHg 82%
    10:00 +1°C° 0 mm 5 mps 750 mmHg 80%
    11:00 +2°C° 0 mm 5 mps 751 mmHg 78%
    12:00 +1°C° 0 mm 5 mps 751 mmHg 77%
    13:00 +1°C° 0 mm 5 mps 751 mmHg 77%
    14:00 +1°C° 0 mm 6 mps 751 mmHg 77%
    15:00 +1°C° 0 mm 6 mps 751 mmHg 77%
    16:00 +1°C° 0 mm 5 mps 751 mmHg 78%
    17:00 +1°C° 0 mm 5 mps 752 mmHg 78%
    18:00 +1°C° 0 mm 5 mps 752 mmHg 79%
    19:00 +1°C° 0 mm 5 mps 752 mmHg 81%
    20:00 +1°C° 0 mm 5 mps 753 mmHg 82%
    21:00 +1°C° 0 mm 5 mps 753 mmHg 83%
    22:00 +1°C° 0 mm 4 mps 753 mmHg 85%
    23:00 +1°C° 0 mm 4 mps 754 mmHg 86%

    17 December, Tuesday

    Time Temperature Precipitation Wind Pressure Humidity
    00:00 +1°C° 0 mm 4 mps 754 mmHg 87%
    01:00 +2°C° 0 mm 3 mps 754 mmHg 88%
    02:00 +1°C° 0 mm 3 mps 755 mmHg 88%
    03:00 +1°C° 0 mm 3 mps 755 mmHg 90%
    04:00 +1°C° 0 mm 3 mps 755 mmHg 92%
    05:00 0°C° 0 mm 3 mps 755 mmHg 94%
    06:00 +1°C° 0 mm 2 mps 754 mmHg 93%
    07:00 +1°C° 0 mm 2 mps 754 mmHg 93%
    08:00 +1°C° 0 mm 2 mps 754 mmHg 93%
    09:00 +1°C° 0.1 mm 3 mps 754 mmHg 92%
    10:00 +1°C° 0.1 mm 3 mps 754 mmHg 92%
    11:00 +2°C° 0.1 mm 3 mps 754 mmHg 92%
    12:00 +2°C° 0.2 mm 3 mps 753 mmHg 91%
    13:00 +3°C° 0.2 mm 4 mps 752 mmHg 90%
    14:00 +3°C° 0.2 mm 4 mps 752 mmHg 89%
    15:00 +3°C° 0 mm 4 mps 752 mmHg 90%
    16:00 +3°C° 0 mm 4 mps 752 mmHg 91%
    17:00 +1°C° 0 mm 4 mps 751 mmHg 92%
    18:00 +1°C° 0 mm 4 mps 751 mmHg 92%
    19:00 +1°C° 0 mm 4 mps 751 mmHg 92%
    20:00 +1°C° 0 mm 4 mps 752 mmHg 93%
    21:00 +2°C° 0 mm 3 mps 752 mmHg 93%
    22:00 +2°C° 0 mm 3 mps 752 mmHg 93%
    23:00 +2°C° 0 mm 3 mps 752 mmHg 94%

    18 December, Wednesday

    Time Temperature Precipitation Wind Pressure Humidity
    00:00 +2°C° 0 mm 3 mps 752 mmHg 94%
    01:00 +2°C° 0 mm 3 mps 752 mmHg 94%
    02:00 +2°C° 0 mm 3 mps 751 mmHg 94%
    03:00 +2°C° 0 mm 3 mps 751 mmHg 94%
    04:00 +2°C° 0 mm 3 mps 751 mmHg 93%
    05:00 +2°C° 0 mm 3 mps 751 mmHg 93%
    06:00 +2°C° 0 mm 3 mps 751 mmHg 93%
    07:00 +2°C° 0 mm 3 mps 750 mmHg 93%
    08:00 +2°C° 0 mm 3 mps 750 mmHg 92%
    09:00 +2°C° 0 mm 3 mps 750 mmHg 92%
    10:00 +3°C° 0 mm 3 mps 750 mmHg 92%
    11:00 +3°C° 0 mm 3 mps 750 mmHg 91%
    12:00 +3°C° 0 mm 3 mps 750 mmHg 92%
    13:00 +3°C° 0 mm 3 mps 750 mmHg 92%
    14:00 +3°C° 0 mm 3 mps 750 mmHg 92%
    15:00 +3°C° 0 mm 3 mps 750 mmHg 93%
    16:00 +3°C° 0 mm 3 mps 750 mmHg 94%
    17:00 +3°C° 0 mm 3 mps 750 mmHg 95%
    18:00 +3°C° 0 mm 3 mps 750 mmHg 95%
    19:00 +3°C° 0 mm 3 mps 750 mmHg 94%
    20:00 +3°C° 0 mm 4 mps 750 mmHg 94%
    21:00 +4°C° 0 mm 4 mps 750 mmHg 93%
    22:00 +4°C° 0 mm 4 mps 750 mmHg 92%
    23:00 +4°C° 0 mm 4 mps 751 mmHg 91%
    Show more